Kosmos-1176

operational
NORAD ID: 11788 Int'l Des: 1980-034 Owner: VMF Country: SU
LEOCIRCULAR

About Kosmos-1176

Description loading...

Live Position

Loading 3D Globe...

Upcoming Passes

Altitude History

Altitude vs Time

uPlot chart will show altitude changes over time

Two-Line Element Set

1 11788U 80034A 26063.04195822 -.00000035 00000-0 43483-4 0 9993
2 11788 64.8281 291.1198 0058949 300.4276 59.0970 13.93139041327178
Epoch: Mar 4, 2026 • Age: 22 hours

Current Status

Altitude 892.8 km
Velocity 7.42 km/s
Sub-Earth Point -10.57°S, 156.8°E
Launch Date Apr 29, 1980
Age 45.8 years
Type other

Technical Details

Classification Payload
Mass 1154.00 kg
Dry Mass 1154.00 kg
Total Mass 4300.00 kg
Length 5.80 m
Diameter 1.30 m
Span 5.80 m
Shape Cyl
Manufacturer KOMET
Bus Type US-A reactor
Phase Status In Orbit
Owner/State VMF/SU

Large Constellations

Loading constellations...